| time (UTC) | temp F | wind direction | speed MPH | gust MPH | rain 1hr in | rain 24hr in | rain mn in | humidity % | barometer mb |
| 20260505022824 | 58 | 125 | 0.0 | 1.0 | 0.00 | 0.00 | 0.00 | 70 | 1013.0 |
| 20260505022321 | 58 | 125 | 0.0 | 0.0 | 0.00 | 0.00 | 0.00 | 70 | 1013.0 |
| 20260505021818 | 58 | 125 | 0.0 | 0.0 | 0.00 | 0.00 | 0.00 | 70 | 1013.0 |
| 20260505021315 | 58 | 125 | 0.0 | 0.0 | 0.00 | 0.00 | 0.00 | 70 | 1013.0 |
| 20260505020810 | 58 | 125 | 0.0 | 0.0 | 0.00 | 0.00 | 0.00 | 70 | 1013.0 |
| 20260505020306 | 58 | 125 | 0.0 | 0.0 | 0.00 | 0.00 | 0.00 | 70 | 1012.9 |
| 20260505015803 | 58 | 125 | 0.0 | 0.0 | 0.00 | 0.00 | 0.00 | 70 | 1012.9 |
| 20260505015301 | 58 | 125 | 0.0 | 1.0 | 0.00 | 0.00 | 0.00 | 70 | 1012.8 |
| 20260505014758 | 58 | 125 | 0.0 | 0.0 | 0.00 | 0.00 | 0.00 | 70 | 1012.7 |
| 20260505014255 | 58 | 125 | 0.0 | 0.0 | 0.00 | 0.00 | 0.00 | 69 | 1012.8 |
| 20260505013751 | 58 | 125 | 0.0 | 0.0 | 0.00 | 0.00 | 0.00 | 68 | 1012.7 |
| 20260505013248 | 58 | 125 | 0.0 | 0.0 | 0.00 | 0.00 | 0.00 | 67 | 1012.6 |
| 20260505012747 | 59 | 125 | 0.0 | 0.0 | 0.00 | 0.00 | 0.00 | 67 | 1012.4 |
| 20260505012244 | 59 | 125 | 0.0 | 0.0 | 0.00 | 0.00 | 0.00 | 67 | 1012.5 |
| 20260505011739 | 59 | 125 | 0.0 | 0.0 | 0.00 | 0.00 | 0.00 | 66 | 1012.3 |
| 20260505011236 | 60 | 125 | 0.0 | 0.0 | 0.00 | 0.00 | 0.00 | 66 | 1012.3 |
| 20260505010732 | 60 | 125 | 0.0 | 0.0 | 0.00 | 0.00 | 0.00 | 65 | 1012.0 |
| 20260505010229 | 60 | 125 | 0.0 | 0.0 | 0.00 | 0.00 | 0.00 | 65 | 1012.2 |
| 20260505005725 | 60 | 125 | 0.0 | 0.0 | 0.00 | 0.00 | 0.00 | 65 | 1012.0 |
| 20260505005222 | 61 | 125 | 0.0 | 0.0 | 0.00 | 0.00 | 0.00 | 67 | 1012.1 |
| 20260505004719 | 62 | 125 | 0.0 | 0.0 | 0.00 | 0.00 | 0.00 | 63 | 1011.8 |
| 20260505004216 | 62 | 125 | 0.0 | 0.0 | 0.00 | 0.00 | 0.00 | 62 | 1011.9 |
| 20260505003713 | 62 | 125 | 0.0 | 0.0 | 0.00 | 0.00 | 0.00 | 63 | 1011.7 |
| 20260505003211 | 63 | 125 | 0.0 | 0.0 | 0.00 | 0.00 | 0.00 | 64 | 1011.8 |
| 20260505002707 | 63 | 125 | 0.0 | 0.0 | 0.00 | 0.00 | 0.00 | 64 | 1011.7 |
| 20260505002205 | 64 | 125 | 0.0 | 0.0 | 0.00 | 0.00 | 0.00 | 62 | 1011.5 |
| 20260505001701 | 65 | 125 | 0.0 | 0.0 | 0.00 | 0.00 | 0.00 | 61 | 1011.6 |
| 20260505001159 | 65 | 125 | 0.0 | 0.0 | 0.00 | 0.00 | 0.00 | 59 | 1011.5 |
| 20260505000656 | 66 | 125 | 0.0 | 0.0 | 0.00 | 0.00 | 0.00 | 58 | 1011.5 |
| 20260505000154 | 67 | 125 | 0.0 | 0.0 | 0.00 | 0.00 | 0.00 | 60 | 1011.6 |
| 20260504235650 | 67 | 125 | 0.0 | 0.0 | 0.00 | 0.00 | 0.00 | 57 | 1011.3 |
| 20260504235146 | 68 | 125 | 0.0 | 0.0 | 0.00 | 0.00 | 0.00 | 57 | 1011.4 |
| 20260504234644 | 69 | 125 | 0.0 | 1.0 | 0.00 | 0.00 | 0.00 | 53 | 1011.3 |
| 20260504234141 | 69 | 125 | 0.0 | 0.0 | 0.00 | 0.00 | 0.00 | 52 | 1011.3 |
| 20260504233637 | 70 | 125 | 0.0 | 0.0 | 0.00 | 0.00 | 0.00 | 51 | 1011.4 |
| 20260504233133 | 71 | 125 | 0.0 | 0.0 | 0.00 | 0.00 | 0.00 | 49 | 1011.3 |
| 20260504232631 | 71 | 125 | 0.0 | 0.0 | 0.00 | 0.00 | 0.00 | 49 | 1011.4 |
| 20260504232127 | 72 | 125 | 0.0 | 0.0 | 0.00 | 0.00 | 0.00 | 49 | 1011.3 |
| 20260504231624 | 73 | 125 | 0.0 | 0.0 | 0.00 | 0.00 | 0.00 | 45 | 1011.3 |
| 20260504231120 | 73 | 125 | 0.0 | 0.0 | 0.00 | 0.00 | 0.00 | 37 | 1011.3 |
| 20260504230616 | 73 | 125 | 1.0 | 1.0 | 0.00 | 0.00 | 0.00 | 42 | 1011.2 |
| 20260504230116 | 73 | 128 | 0.0 | 1.0 | 0.00 | 0.00 | 0.00 | 42 | 1011.2 |
| 20260504225613 | 74 | 59 | 1.0 | 1.0 | 0.00 | 0.00 | 0.00 | 42 | 1011.2 |
| 20260504225109 | 74 | 57 | 0.0 | 0.0 | 0.00 | 0.00 | 0.00 | 36 | 1011.2 |
| 20260504224606 | 75 | 114 | 0.0 | 0.0 | 0.00 | 0.00 | 0.00 | 39 | 1011.1 |
| 20260504224103 | 75 | 82 | 1.0 | 1.0 | 0.00 | 0.00 | 0.00 | 38 | 1011.3 |
| 20260504223600 | 75 | 83 | 1.0 | 1.0 | 0.00 | 0.00 | 0.00 | 35 | 1011.4 |
| 20260504223055 | 75 | 82 | 1.0 | 2.0 | 0.00 | 0.00 | 0.00 | 35 | 1011.4 |
| 20260504222553 | 75 | 131 | 0.0 | 0.0 | 0.00 | 0.00 | 0.00 | 32 | 1011.3 |
| 20260504222050 | 75 | 131 | 1.0 | 1.0 | 0.00 | 0.00 | 0.00 | 35 | 1011.4 |
| 20260504221547 | 76 | 153 | 0.0 | 2.0 | 0.00 | 0.00 | 0.00 | 37 | 1011.5 |
| 20260504221044 | 76 | 152 | 0.0 | 0.0 | 0.00 | 0.00 | 0.00 | 33 | 1011.2 |
| 20260504220540 | 76 | 115 | 1.0 | 1.0 | 0.00 | 0.00 | 0.00 | 32 | 1011.4 |
| 20260504220038 | 76 | 156 | 1.0 | 2.0 | 0.00 | 0.00 | 0.00 | 35 | 1011.2 |
| 20260504215534 | 77 | 158 | 1.0 | 2.0 | 0.00 | 0.00 | 0.00 | 33 | 1011.3 |
| 20260504215032 | 77 | 79 | 1.0 | 1.0 | 0.00 | 0.00 | 0.00 | 31 | 1011.3 |
| 20260504214527 | 77 | 135 | 2.0 | 4.0 | 0.00 | 0.00 | 0.00 | 30 | 1011.4 |
| 20260504214024 | 77 | 185 | 0.0 | 2.0 | 0.00 | 0.00 | 0.00 | 30 | 1011.4 |
| 20260504213521 | 77 | 111 | 1.0 | 4.0 | 0.00 | 0.00 | 0.00 | 30 | 1011.3 |
| 20260504213018 | 77 | 69 | 0.0 | 1.0 | 0.00 | 0.00 | 0.00 | 33 | 1011.4 |
| 20260504212513 | 77 | 69 | 0.0 | 1.0 | 0.00 | 0.00 | 0.00 | 30 | 1011.3 |
| 20260504212011 | 78 | 154 | 1.0 | 2.0 | 0.00 | 0.00 | 0.00 | 31 | 1011.4 |
| 20260504211508 | 78 | 260 | 2.0 | 2.0 | 0.00 | 0.00 | 0.00 | 31 | 1011.3 |
| 20260504211005 | 78 | 96 | 1.0 | 4.0 | 0.00 | 0.00 | 0.00 | 30 | 1011.4 |
| 20260504210502 | 78 | 78 | 1.0 | 4.0 | 0.00 | 0.00 | 0.00 | 28 | 1011.3 |
| 20260504205958 | 78 | 163 | 1.0 | 2.0 | 0.00 | 0.00 | 0.00 | 28 | 1011.5 |
| 20260504205456 | 78 | 82 | 0.0 | 1.0 | 0.00 | 0.00 | 0.00 | 29 | 1011.3 |
| 20260504204954 | 78 | 157 | 2.0 | 3.0 | 0.00 | 0.00 | 0.00 | 30 | 1011.4 |
| 20260504204452 | 78 | 295 | 0.0 | 1.0 | 0.00 | 0.00 | 0.00 | 30 | 1011.4 |
| 20260504203951 | 79 | 212 | 1.0 | 2.0 | 0.00 | 0.00 | 0.00 | 29 | 1011.4 |
| 20260504203448 | 78 | 217 | 0.0 | 2.0 | 0.00 | 0.00 | 0.00 | 29 | 1011.6 |
| 20260504202944 | 79 | 158 | 2.0 | 4.0 | 0.00 | 0.00 | 0.00 | 29 | 1011.8 |
| 20260504202441 | 79 | 59 | 1.0 | 1.0 | 0.00 | 0.00 | 0.00 | 28 | 1011.5 |
| 20260504201938 | 80 | 163 | 0.0 | 2.0 | 0.00 | 0.00 | 0.00 | 27 | 1011.6 |
| 20260504201435 | 80 | 233 | 0.0 | 1.0 | 0.00 | 0.00 | 0.00 | 28 | 1011.6 |
| 20260504200933 | 80 | 239 | 1.0 | 2.0 | 0.00 | 0.00 | 0.00 | 30 | 1011.7 |
| 20260504200429 | 81 | 244 | 2.0 | 2.0 | 0.00 | 0.00 | 0.00 | 29 | 1011.6 |
| 20260504195926 | 81 | 54 | 1.0 | 2.0 | 0.00 | 0.00 | 0.00 | 27 | 1011.9 |
| 20260504195422 | 81 | 274 | 1.0 | 3.0 | 0.00 | 0.00 | 0.00 | 29 | 1011.9 |
| 20260504194918 | 80 | 120 | 0.0 | 3.0 | 0.00 | 0.00 | 0.00 | 30 | 1011.9 |
| 20260504194414 | 81 | 149 | 3.0 | 3.0 | 0.00 | 0.00 | 0.00 | 28 | 1012.0 |
| 20260504193910 | 81 | 144 | 1.0 | 3.0 | 0.00 | 0.00 | 0.00 | 28 | 1012.4 |
| 20260504193408 | 81 | 143 | 0.0 | 2.0 | 0.00 | 0.00 | 0.00 | 28 | 1012.4 |
| 20260504192907 | 82 | 51 | 0.0 | 1.0 | 0.00 | 0.00 | 0.00 | 26 | 1012.4 |
| 20260504192403 | 82 | 157 | 1.0 | 2.0 | 0.00 | 0.00 | 0.00 | 25 | 1012.4 |
| 20260504191902 | 81 | 152 | 0.0 | 1.0 | 0.00 | 0.00 | 0.00 | 28 | 1012.2 |
| 20260504191400 | 80 | 171 | 1.0 | 2.0 | 0.00 | 0.00 | 0.00 | 25 | 1012.3 |
| 20260504190855 | 82 | 142 | 2.0 | 2.0 | 0.00 | 0.00 | 0.00 | 26 | 1012.5 |
| 20260504190351 | 81 | 276 | 1.0 | 1.0 | 0.00 | 0.00 | 0.00 | 26 | 1012.6 |
| 20260504185848 | 80 | 154 | 1.0 | 2.0 | 0.00 | 0.00 | 0.00 | 26 | 1012.6 |
| 20260504185345 | 81 | 148 | 1.0 | 3.0 | 0.00 | 0.00 | 0.00 | 25 | 1012.7 |
| 20260504184841 | 80 | 251 | 3.0 | 4.0 | 0.00 | 0.00 | 0.00 | 27 | 1012.6 |
| 20260504184337 | 80 | 111 | 1.0 | 2.0 | 0.00 | 0.00 | 0.00 | 25 | 1012.5 |
| 20260504183833 | 80 | 144 | 1.0 | 2.0 | 0.00 | 0.00 | 0.00 | 24 | 1012.6 |
| 20260504183330 | 79 | 162 | 0.0 | 3.0 | 0.00 | 0.00 | 0.00 | 27 | 1012.8 |
| 20260504182828 | 81 | 168 | 4.0 | 6.0 | 0.00 | 0.00 | 0.00 | 23 | 1012.7 |
| 20260504182325 | 79 | 52 | 1.0 | 1.0 | 0.00 | 0.00 | 0.00 | 29 | 1012.8 |
| 20260504181822 | 79 | 108 | 2.0 | 2.0 | 0.00 | 0.00 | 0.00 | 27 | 1013.0 |
| 20260504181320 | 79 | 169 | 2.0 | 3.0 | 0.00 | 0.00 | 0.00 | 26 | 1013.1 |
| 20260504180818 | 77 | 17 | 0.0 | 1.0 | 0.00 | 0.00 | 0.00 | 26 | 1013.1 |
| 20260504180316 | 77 | 152 | 1.0 | 4.0 | 0.00 | 0.00 | 0.00 | 25 | 1013.1 |
| 20260504175814 | 79 | 44 | 2.0 | 7.0 | 0.00 | 0.00 | 0.00 | 25 | 1013.1 |
| 20260504175311 | 77 | 195 | 0.0 | 1.0 | 0.00 | 0.00 | 0.00 | 28 | 1013.0 |
| 20260504174809 | 77 | 120 | 0.0 | 2.0 | 0.00 | 0.00 | 0.00 | 27 | 1013.1 |
| 20260504174306 | 78 | 244 | 1.0 | 4.0 | 0.00 | 0.00 | 0.00 | 30 | 1013.3 |
| 20260504173802 | 78 | 157 | 1.0 | 2.0 | 0.00 | 0.00 | 0.00 | 27 | 1013.3 |
| 20260504173259 | 78 | 20 | 1.0 | 3.0 | 0.00 | 0.00 | 0.00 | 29 | 1013.0 |
| 20260504172756 | 77 | 102 | 1.0 | 1.0 | 0.00 | 0.00 | 0.00 | 27 | 1013.2 |
| 20260504172253 | 79 | 57 | 2.0 | 3.0 | 0.00 | 0.00 | 0.00 | 27 | 1013.2 |
| 20260504171749 | 78 | 164 | 0.0 | 2.0 | 0.00 | 0.00 | 0.00 | 27 | 1013.5 |
| 20260504171246 | 77 | 99 | 0.0 | 1.0 | 0.00 | 0.00 | 0.00 | 31 | 1013.5 |
| 20260504170743 | 76 | 113 | 2.0 | 3.0 | 0.00 | 0.00 | 0.00 | 29 | 1013.5 |
| 20260504170240 | 76 | 76 | 0.0 | 0.0 | 0.00 | 0.00 | 0.00 | 29 | 1013.7 |
| 20260504160159 | 71 | 135 | 2.0 | 3.0 | 0.00 | 0.00 | 0.00 | 37 | 1014.7 |
| 20260504151126 | 66 | 107 | 0.0 | 1.0 | 0.00 | 0.00 | 0.00 | 54 | 1014.9 |
| 20260504150624 | 65 | 130 | 1.0 | 3.0 | 0.00 | 0.00 | 0.00 | 49 | 1014.8 |
| 20260504150121 | 65 | 98 | 1.0 | 1.0 | 0.00 | 0.00 | 0.00 | 52 | 1015.0 |
| 20260504141049 | 60 | 139 | 1.0 | 1.0 | 0.00 | 0.00 | 0.00 | 64 | 1014.9 |
| 20260504140546 | 60 | 139 | 1.0 | 2.0 | 0.00 | 0.00 | 0.00 | 62 | 1015.1 |
| 20260504130510 | 49 | 239 | 0.0 | 0.0 | 0.00 | 0.00 | 0.00 | 90 | 1015.2 |
| 20260504110357 | 38 | 138 | 0.0 | 0.0 | 0.00 | 0.00 | 0.00 | 96 | 1015.6 |
| 20260504100315 | 38 | 138 | 0.0 | 0.0 | 0.00 | 0.00 | 0.00 | 95 | 1015.2 |
| 20260504081708 | 39 | 138 | 0.0 | 0.0 | 0.00 | 0.00 | 0.00 | 93 | 1014.9 |
| 20260504081204 | 39 | 138 | 0.0 | 0.0 | 0.00 | 0.00 | 0.00 | 93 | 1014.9 |
| 20260504080701 | 39 | 138 | 0.0 | 0.0 | 0.00 | 0.00 | 0.00 | 93 | 1014.8 |
| 20260504080157 | 39 | 138 | 0.0 | 0.0 | 0.00 | 0.00 | 0.00 | 93 | 1015.0 |
| 20260504070125 | 40 | 133 | 0.0 | 0.0 | 0.00 | 0.00 | 0.00 | 93 | 1015.0 |
| 20260504050514 | 41 | 132 | 0.0 | 0.0 | 0.00 | 0.00 | 0.00 | 90 | 1015.4 |
| 20260504050011 | 41 | 132 | 0.0 | 0.0 | 0.00 | 0.00 | 0.00 | 90 | 1015.5 |
| 20260504045508 | 41 | 132 | 0.0 | 0.0 | 0.00 | 0.00 | 0.00 | 90 | 1015.4 |
| 20260504045003 | 41 | 132 | 0.0 | 0.0 | 0.00 | 0.00 | 0.00 | 90 | 1015.2 |
| 20260504044501 | 41 | 132 | 0.0 | 0.0 | 0.00 | 0.00 | 0.00 | 90 | 1015.3 |
| 20260504043957 | 41 | 132 | 0.0 | 0.0 | 0.00 | 0.00 | 0.00 | 90 | 1015.4 |
| 20260504043454 | 41 | 132 | 0.0 | 0.0 | 0.00 | 0.00 | 0.00 | 89 | 1015.5 |
| 20260504042952 | 41 | 132 | 0.0 | 0.0 | 0.00 | 0.00 | 0.00 | 89 | 1015.5 |
| 20260504042448 | 41 | 132 | 0.0 | 0.0 | 0.00 | 0.00 | 0.00 | 89 | 1015.3 |
| 20260504041945 | 41 | 132 | 0.0 | 0.0 | 0.00 | 0.00 | 0.00 | 89 | 1015.6 |
| 20260504041441 | 41 | 132 | 0.0 | 0.0 | 0.00 | 0.00 | 0.00 | 88 | 1015.6 |
| 20260504040937 | 41 | 132 | 0.0 | 0.0 | 0.00 | 0.00 | 0.00 | 88 | 1015.3 |
| 20260504040435 | 42 | 132 | 0.0 | 0.0 | 0.00 | 0.00 | 0.00 | 87 | 1015.4 |
| 20260504035931 | 42 | 132 | 0.0 | 0.0 | 0.00 | 0.00 | 0.00 | 87 | 1015.3 |
| 20260504035429 | 42 | 132 | 0.0 | 0.0 | 0.00 | 0.00 | 0.00 | 87 | 1015.3 |
| 20260504034925 | 42 | 132 | 0.0 | 0.0 | 0.00 | 0.00 | 0.00 | 87 | 1015.3 |
| 20260504034423 | 42 | 132 | 0.0 | 0.0 | 0.00 | 0.00 | 0.00 | 87 | 1015.4 |
| 20260504033920 | 42 | 132 | 0.0 | 0.0 | 0.00 | 0.00 | 0.00 | 86 | 1015.4 |
| 20260504033418 | 42 | 132 | 0.0 | 0.0 | 0.00 | 0.00 | 0.00 | 86 | 1015.4 |
| 20260504032914 | 42 | 132 | 0.0 | 1.0 | 0.00 | 0.00 | 0.00 | 85 | 1015.3 |
| 20260504032411 | 42 | 132 | 0.0 | 0.0 | 0.00 | 0.00 | 0.00 | 85 | 1015.3 |
| 20260504031908 | 43 | 132 | 0.0 | 0.0 | 0.00 | 0.00 | 0.00 | 85 | 1015.3 |
| 20260504031405 | 43 | 132 | 0.0 | 0.0 | 0.00 | 0.00 | 0.00 | 84 | 1015.3 |
| 20260504030901 | 43 | 132 | 0.0 | 0.0 | 0.00 | 0.00 | 0.00 | 84 | 1015.3 |
| 20260504030359 | 43 | 132 | 0.0 | 1.0 | 0.00 | 0.00 | 0.00 | 83 | 1015.3 |
| 20260504025854 | 43 | 132 | 0.0 | 0.0 | 0.00 | 0.00 | 0.00 | 83 | 1015.2 |
| 20260504025352 | 44 | 132 | 0.0 | 0.0 | 0.00 | 0.00 | 0.00 | 82 | 1015.2 |
| 20260504024848 | 44 | 132 | 0.0 | 0.0 | 0.00 | 0.00 | 0.00 | 82 | 1015.3 |
| 20260504024345 | 44 | 132 | 0.0 | 0.0 | 0.00 | 0.00 | 0.00 | 82 | 1015.1 |
| 20260504023842 | 44 | 132 | 0.0 | 1.0 | 0.00 | 0.00 | 0.00 | 81 | 1014.9 |
| 20260504023339 | 44 | 132 | 0.0 | 0.0 | 0.00 | 0.00 | 0.00 | 81 | 1014.9 |